STARLINK-11305, 61247

Orbit data source: Space-Track

STARLINK-11305, 61247 is a payload satellite owned by SpaceX/Seattle (US) in LEO that was launched on Wed, 25 Sep 2024 UTC via an FALCON 9 launch vehicle from the Air Force Western Test Range (AFWTR). Payload-class satellites include a variety of spacecraft equipped with specific instruments for various scientific and technological missions. These include communications satellites like Starlink; space stations such as the ISS; scientific satellites like the Hubble; Earth observation satellites from companies like Planet Labs, Umbra, and HawkEye 360; GPS; miniature CubeSats for education and research; and military/defense satellites.

Loading next visibility...
Identifier
61247, 2024-175E
Orbit
LEO
Last TLE update
20 hours ago
Origin
Manufacturer
SpaceX/Seattle
Mission
Operational Commercial Communications
Bus & Motor
STARLINK V2M, Unknown motor
Mass
730 kg wet, ~700 kg dry
Launch date (UTC)
2024-09-25 (9 months ago)
Launch vehicle
FALCON 9
Launch site
Air Force Western Test Range (AFWTR)
Object type
Payload
Rocket body
Debris
Shape & HBR
Box + 2 Pan, 29 m
Radar Cross Section
36.964 m², Large (>1 m²)

Expand to show TLE details & history

TLE from 20 hours ago
0 STARLINK-11305
1 61247U 24175E   25181.58720471 -.00000997  00000-0 -33715-5 0  9991
2 61247  53.1593 218.8393 0000957  99.5459 260.5667 15.69707207 44974
Epoch: 2025-06-30T14:05Z
TLE epoch observation values (Epoch: 2025-06-30T14:05:34.486Z)
Latitude
-0.00005°
Longitude
88.5507°
Altitude
360.755 km
Speed
7.694 km/s
True Right ascension
14h 35m 21s
True Declination
0° 00' 00"
Sunlit
Object was in full shadow at epoch
Visualization orbit readout
Latitude
-21.94775°
Longitude
67.02315°
Altitude
366.361 km
Speed
7.689 km/s
Apparent Right ascension
11h 33m 33s
Apparent Declination
-33° 34' 04"
Sunlit
Object is in daylight
Visualization observer readout
Local Sidereal Time
21:28:45
Azimuth
274.404° WNW
Elevation
-64.347°
Doppler factor
1
Orbital elements
Apogee altitude
360.64 km
Perigee altitude
359.351 km
Semi-major axis
6,738.133 km
Eccentricity
0.0001
Inclination
53.1593°
RAAN
218.8393°
Arg. of periapsis
99.5459°
True anomaly
Unknown
Mean anomaly
260.5667°
Eccentric anomaly
Unknown
Mean motion
3.92404 °/min
Orbital period
91.74 mins
BSTAR
-0.0000033715
Loading maneuver chart data...
Loading SW <> Apogee altitude chart data...
Loading historical data...
Loading historical data...
Loading historical data...
Loading historical data...
Loading historical data...
Loading historical data...
Loading historical data...

STARLINK-11305 Visibility forecast

Observer location: undefined°, undefined°

Span
Click to sort rows by Start time (UTC) header in descending order
Start Az.
Max El. time (UTC)
Max El. Az.
Max El.
End time (UTC)
End Az.
4 mins2025-07-01 11:59:24.665Z312.125° NW2025-07-01 12:01:24.665Z92.153° ESE44.637°2025-07-01 12:03:24.665Z128.251° SE
|